Location: Bacea
(45.9500°N, 22.6667°E)
Time: 09:25:08
(UTC+00:00)

Cosmos 1269 Rocket - Pass Details

Date: 16 October 2021
Orbit: 773 x 778 km, 74.1° (Epoch: 07 December)

Event Time Altitude Azimuth Distance (km) Brightness Sun altitude
Rises 17:23:24 0° 339° (NNW) 3,269 7.6 -18.5°
Reaches altitude 10° 17:25:49 10° 342° (NNW) 2,337 6.8 -18.9°
Maximum altitude 17:31:07 72° 67° (ENE) 817 3.9 -19.8°
Enters shadow 17:34:00 27° 147° (SSE) 1,442 5.1 -20.3°
